Regional Weather Roundup
Issued by NWS

Home | Current Version | Previous Version | Graphics & Text | Print | Product List | Glossary On
Versions: 1 2 3 4 5 6 7 8 9 10 11 12 13 14 15 16 17 18 19 20 21 22 23 24 25 26 27 28 29 30 31 32 33 34 35 36 37 38 39 40 41 42 43 44 45 46 47 48 49 50
000
ASUS45 KTFX 220810
RWRMT
MONTANA REGIONAL WEATHER ROUNDUP
NATIONAL WEATHER SERVICE GREAT FALLS MT
200 AM MDT SAT JUL 22 2017

NOTE: "FAIR" INDICATES FEW OR NO CLOUDS BELOW 12000 FEET WITH NO
SIGNIFICANT WEATHER AND/OR OBSTRUCTIONS TO VISIBILITY.

MTZ001>007-043-220900-
WEST OF THE DIVIDE

CITY           SKY/WX    TMP DP  RH WIND       PRES   REMARKS
KALISPELL      CLEAR     54  43  66 CALM      30.12R
MISSOULA       CLEAR     57  36  45 NW5       30.15R
BUTTE          CLEAR     54  29  38 S7        30.26R
MULLAN PASS    CLEAR     53  33  46 VRB3      30.27S
ANACONDA         N/A     54  30  40 SW6       30.23S
DEER LODGE       N/A     57  34  41 CALM      30.23S
EUREKA           N/A     57  43  58 MISG        N/A
HAMILTON         N/A     55  36  47 CALM      30.17S
LIBBY            N/A     55  39  54 CALM      30.12R
$$

MTZ008-052>055-220900-
SOUTHWEST MONTANA

CITY           SKY/WX    TMP DP  RH WIND       PRES   REMARKS
BOZEMAN        CLEAR     56  39  53 S7        30.18R
DILLON         CLEAR     63  24  22 SW3       30.22R
W YELLOWSTONE  CLEAR     45  32  61 CALM      30.29S
ENNIS          CLEAR     54  28  37 S7        30.26S
THREE FORKS      N/A     49  39  68 CALM      30.15R
$$

MTZ009-010-012-014-046-048-049-054-220900-
EAST SLOPES AND CENTRAL MONTANA

CITY           SKY/WX    TMP DP  RH WIND       PRES   REMARKS
CUT BANK       PTCLDY    50  42  74 NW7       30.13R
GREAT FALLS    PTCLDY    59  32  36 NE6       30.12R
MALMSTROM AFB  PTCLDY    59  34  39 NE3       30.12R
HELENA         CLEAR     65  34  31 CALM      30.15R
CHOTEAU          N/A     59  36  41 CALM      30.16R
$$

MTZ011-013-016-021-045-047-050-051-220900-
NORTH CENTRAL MONTANA

CITY           SKY/WX    TMP DP  RH WIND       PRES   REMARKS
HAVRE          CLOUDY    55  42  61 SW7       30.07R
LEWISTOWN      CLEAR     52  31  44 SE5       30.14R
N BAR RANCH      N/A     54  28  37 W7        30.18R
CHINOOK          N/A     57  43  58 W5        30.05R
$$

MTZ017>020-022>027-061-062-220900-
NORTHEAST MONTANA

CITY           SKY/WX    TMP DP  RH WIND       PRES   REMARKS
GLASGOW        CLEAR     59  39  47 W5        29.98R
JORDAN           N/A     54  33  45 W6        30.02R
SIDNEY         CLEAR     59  41  51 VRB3      29.95R
WOLF POINT     CLEAR     58  40  51 SW5       29.96S
MALTA          PTCLDY    59  43  55 W8        30.02R
PLENTYWOOD       N/A     61  48  63 CALM      29.94S
POPLAR           N/A     59  43  55 CALM      29.96S
$$

MTZ028>42-056>058-220900-
SOUTHCENTRAL AND SOUTHEAST MONTANA

CITY           SKY/WX    TMP DP  RH WIND       PRES   REMARKS
BAKER          CLEAR     59  36  42 CALM      30.00R
BILLINGS       CLEAR     67  25  20 NW10      30.09R
LIVINGSTON     CLEAR     57  33  40 VRB3      30.18R
MILES CITY     PTCLDY    63  26  24 NW9       29.99R
BIG TIMBER     MOCLDY    64  28  25 S5        30.19R
FORSYTH          N/A     70  30  23 CALM      30.01R
LAUREL           N/A     65  25  22 W8        30.08F
ROUNDUP          N/A     65  24  21 SW3       30.01R
$$

REGIONAL REPORTS...DAKOTAS

CITY           SKY/WX    TMP DP  RH WIND       PRES   REMARKS
WILLISTON      CLEAR     62  47  57 NE3       29.93S
MINOT          CLEAR     66  51  58 W12       29.86R
DICKINSON      CLEAR     55  47  74 S6        29.95R
BEACH          MOCLDY    54  48  82 SW3       30.01R
CROSBY           N/A     55  50  82 W8        29.92R
TIOGA            N/A     55  52  88 W7        29.94S
WATFORD CITY     N/A     52  46  82 CALM      29.94R
BISMARCK       CLEAR     63  62  97 W3        29.87R
GRAND FORKS    CLOUDY    70  70 100 SW5       29.77F FOG
FARGO          LGT RAIN  72  68  87 NW31G40   29.83R
BUFFALO SD       N/A     65  43  44 SW3       29.93R
RAPID CITY     PTCLDY    70  43  37 W9        30.00R
$$

REGIONAL REPORTS...WYOMING/IDAHO/WASHINGTON

CITY           SKY/WX    TMP DP  RH WIND       PRES   REMARKS
GILLETTE       CLOUDY    59  37  44 S5        30.07S
SHERIDAN       CLEAR     59  45  59 W3        30.07R
BUFFALO WY     CLOUDY    66  38  35 W8        30.13S
CODY           CLEAR     67  33  28 CALM      30.18R
YELLOWSTONE LA   N/A     42  36  79 CALM      30.38S
IDAHO FALLS    CLEAR     67  37  33 S13       30.12R
BOISE          CLEAR     67  45  45 SW6       30.04R
SPOKANE        PTCLDY    66  38  35 SW7       30.11S
$$

REGIONAL REPORTS...ALBERTA

CITY           SKY/WX    TMP DP  RH WIND       PRES   REMARKS
EDMONTON       CLEAR     57  55  94 W6        29.97S
CALGARY        CLEAR     59  39  47 VRB3      30.09S
LETHBRIDGE     CLEAR     52  45  76 SW9       30.09R
MEDICINE HAT   CLEAR     54  50  87 SW5       30.04R
CARDSTON         N/A     52  45  76 S6          N/A
MILK RIVER       N/A     48  43  81 W7          N/A
ONEFOUR          N/A     55  45  67 NW13        N/A
$$

REGIONAL REPORTS...SASKATCHEWAN

CITY           SKY/WX    TMP DP  RH WIND       PRES   REMARKS
SWIFT CURRENT  CLEAR     55  50  82 W10G17    29.96S
SASKATOON      MOCLDY    52  50  93 W5        29.93R
CYPRESS HILLS    N/A     54  46  76 NW6         N/A
VAL MARIE        N/A     50  39  66 W2          N/A
ROCKGLEN         N/A     52  45  76 W9          N/A
$$



USA.gov is the U.S. government's official web portal to all federal, state and local government web resources and services.